Tracking 17938 objects as of 23-February-2017
HD Live streaming from Space Station
objects crossing your sky now

ATLAS CENTAUR R/B

Track ATLAS CENTAUR R/B now!


NORAD ID: 10976
Int'l Code: 1978-068B
Perigee: 640.6 km
Apogee: 36,216.3 km
Inclination: 21.5 °
Period: 647.8 minutes
Semi major axis: 24799 km
RCS: 16.8333 m2 (large)
Launch date: June 29, 1978
Source: United States (US)
Launch site: AIR FORCE EASTERN TEST RANGE (AFETR)

Note: This is a ROCKET BODY
Your satellite tracking list
Your tracking list is empty





NASA's NSSDC Master Catalog

Two Line Element Set (TLE):
1 10976U 78068B   17052.99258875  .00000081  00000-0  60877-3 0  9990
2 10976  21.4747 243.3274 7172687 186.4552  97.6441  2.22307334313693
Source of the keplerian elements: AFSPC